"Sample Date","Sample Time","Sample Value","Units","Flow Rate","Sample Interval","Number Channels","Micron Size 0","Counts/Channel 0","Micron Size 1","Counts/Channel 1","Micron Size 2","Counts/Channel 2","Micron Size 3","Counts/Channel 3","Micron Size 4","Counts/Channel 4","Micron Size 5","Counts/Channel 5","Micron Size 6","Counts/Channel 6","Micron Size 7","Counts/Channel 7","Micron Size 8","Counts/Channel 8","Micron Size 9","Counts/Channel 9","Micron Size 10","Counts/Channel 10","Micron Size 11","Counts/Channel 11","Micron Size 12","Counts/Channel 12","Micron Size 13","Counts/Channel 13","Micron Size 14","Counts/Channel 14","Micron Size 15","Counts/Channel 15","Micron Size 16","Counts/Channel 16","Micron Size 17","Counts/Channel 17","Micron Size 18","Counts/Channel 18","Micron Size 19","Counts/Channel 19","Micron Size 20","Counts/Channel 20","Micron Size 21","Counts/Channel 21","Micron Size 22","Counts/Channel 22","Micron Size 23","Counts/Channel 23","Micron Size 24","Counts/Channel 24","Micron Size 25","Counts/Channel 25","Micron Size 26","Counts/Channel 26","Micron Size 27","Counts/Channel 27","Micron Size 28","Counts/Channel 28","Micron Size 29","Counts/Channel 29","Micron Size 30","Counts/Channel 30","Micron Size 31","Counts/Channel 31"
"03/06/08","01:00:02",16941.000,"cc",28322.787,6.00,6,0.100,12170.000,0.200,4365.000,0.300,249.000,0.500,128.000,1.000,29.000,5.000,0
"03/06/08","01:00:08",17339.000,"cc",28294.701,6.00,6,0.100,12461.000,0.200,4493.000,0.300,243.000,0.500,124.000,1.000,18.000,5.000,0
"03/06/08","01:00:14",17106.000,"cc",28233.359,6.00,6,0.100,12269.000,0.200,4410.000,0.300,296.000,0.500,113.000,1.000,18.000,5.000,0
"03/06/08","01:00:20",17089.000,"cc",28283.414,6.00,6,0.100,12180.000,0.200,4467.000,0.300,278.000,0.500,134.000,1.000,30.000,5.000,0
"03/06/08","01:00:26",17399.000,"cc",28320.336,6.00,6,0.100,12451.000,0.200,4532.000,0.300,268.000,0.500,124.000,1.000,24.000,5.000,0
"03/06/08","01:00:32",17584.000,"cc",28346.861,6.00,6,0.100,12576.000,0.200,4610.000,0.300,246.000,0.500,132.000,1.000,20.000,5.000,0
"03/06/08","01:00:38",17330.000,"cc",28319.098,6.00,6,0.100,12259.000,0.200,4643.000,0.300,251.000,0.500,142.000,1.000,35.000,5.000,0
"03/06/08","01:00:44",16580.000,"cc",28391.859,6.00,6,0.100,11855.000,0.200,4313.000,0.300,237.000,0.500,140.000,1.000,35.000,5.000,0
"03/06/08","01:00:50",15858.000,"cc",28363.578,6.00,6,0.100,11395.000,0.200,4045.000,0.300,240.000,0.500,145.000,1.000,33.000,5.000,0
"03/06/08","01:00:56",15551.000,"cc",28299.047,6.00,6,0.100,11270.000,0.200,3895.000,0.300,219.000,0.500,134.000,1.000,33.000,5.000,0
"03/06/08","01:01:02",15562.000,"cc",28312.645,6.00,6,0.100,11207.000,0.200,3929.000,0.300,238.000,0.500,147.000,1.000,41.000,5.000,0
"03/06/08","01:01:08",15504.000,"cc",28303.113,6.00,6,0.100,11268.000,0.200,3822.000,0.300,217.000,0.500,151.000,1.000,46.000,5.000,0
"03/06/08","01:01:14",15121.000,"cc",28333.740,6.00,6,0.100,10985.000,0.200,3771.000,0.300,201.000,0.500,131.000,1.000,33.000,5.000,0
"03/06/08","01:01:20",14587.000,"cc",28284.596,6.00,6,0.100,10593.000,0.200,3577.000,0.300,232.000,0.500,146.000,1.000,39.000,5.000,0
"03/06/08","01:01:26",14703.000,"cc",28233.221,6.00,6,0.100,10793.000,0.200,3523.000,0.300,202.000,0.500,143.000,1.000,42.000,5.000,0
"03/06/08","01:01:32",14652.000,"cc",28372.018,6.00,6,0.100,10704.000,0.200,3542.000,0.300,207.000,0.500,163.000,1.000,36.000,5.000,0
"03/06/08","01:01:38",14587.000,"cc",28308.006,6.00,6,0.100,10621.000,0.200,3609.000,0.300,202.000,0.500,123.000,1.000,32.000,5.000,0
"03/06/08","01:01:44",14873.000,"cc",28281.357,6.00,6,0.100,10789.000,0.200,3641.000,0.300,241.000,0.500,156.000,1.000,46.000,5.000,0
"03/06/08","01:01:50",14873.000,"cc",28424.082,6.00,6,0.100,10803.000,0.200,3594.000,0.300,247.000,0.500,180.000,1.000,49.000,5.000,0
"03/06/08","01:01:56",14800.000,"cc",28279.518,6.00,6,0.100,10742.000,0.200,3602.000,0.300,250.000,0.500,158.000,1.000,48.000,5.000,0
"03/06/08","01:02:02",14649.000,"cc",28316.275,6.00,6,0.100,10547.000,0.200,3652.000,0.300,235.000,0.500,176.000,1.000,39.000,5.000,0
"03/06/08","01:02:08",14719.000,"cc",28324.988,6.00,6,0.100,10597.000,0.200,3710.000,0.300,225.000,0.500,147.000,1.000,40.000,5.000,0
"03/06/08","01:02:14",15203.000,"cc",28405.770,6.00,6,0.100,10999.000,0.200,3842.000,0.300,210.000,0.500,125.000,1.000,27.000,5.000,0
"03/06/08","01:02:20",15100.000,"cc",28295.854,6.00,6,0.100,10891.000,0.200,3825.000,0.300,215.000,0.500,136.000,1.000,33.000,5.000,0
"03/06/08","01:02:26",15941.000,"cc",28377.162,6.00,6,0.100,11520.000,0.200,4057.000,0.300,209.000,0.500,121.000,1.000,34.000,5.000,0
"03/06/08","01:02:32",15739.000,"cc",28284.588,6.00,6,0.100,11262.000,0.200,4109.000,0.300,222.000,0.500,112.000,1.000,34.000,5.000,0
"03/06/08","01:02:38",15499.000,"cc",28246.072,6.00,6,0.100,11106.000,0.200,4002.000,0.300,222.000,0.500,139.000,1.000,30.000,5.000,0
"03/06/08","01:02:44",15290.000,"cc",28337.732,6.00,6,0.100,11127.000,0.200,3744.000,0.300,225.000,0.500,150.000,1.000,44.000,5.000,0
"03/06/08","01:02:50",15246.000,"cc",28374.900,6.00,6,0.100,10985.000,0.200,3865.000,0.300,233.000,0.500,128.000,1.000,35.000,5.000,0
"03/06/08","01:02:56",15583.000,"cc",28302.623,6.00,6,0.100,11171.000,0.200,3998.000,0.300,229.000,0.500,150.000,1.000,35.000,5.000,0
"03/06/08","01:03:02",15546.000,"cc",28311.881,6.00,6,0.100,11157.000,0.200,3995.000,0.300,224.000,0.500,138.000,1.000,32.000,5.000,0
"03/06/08","01:03:08",15583.000,"cc",28343.467,6.00,6,0.100,11147.000,0.200,4027.000,0.300,231.000,0.500,140.000,1.000,38.000,5.000,0
"03/06/08","01:03:14",15558.000,"cc",28260.938,6.00,6,0.100,11071.000,0.200,4046.000,0.300,234.000,0.500,160.000,1.000,47.000,5.000,0
"03/06/08","01:03:20",15934.000,"cc",28269.711,6.00,6,0.100,11450.000,0.200,4034.000,0.300,241.000,0.500,167.000,1.000,42.000,5.000,0
"03/06/08","01:03:26",15610.000,"cc",28293.104,6.00,6,0.100,11182.000,0.200,3945.000,0.300,263.000,0.500,178.000,1.000,42.000,5.000,0
"03/06/08","01:03:32",15833.000,"cc",28304.313,6.00,6,0.100,11367.000,0.200,3986.000,0.300,260.000,0.500,165.000,1.000,55.000,5.000,0
"03/06/08","01:03:38",16084.000,"cc",28304.510,6.00,6,0.100,11478.000,0.200,4146.000,0.300,247.000,0.500,170.000,1.000,43.000,5.000,0
"03/06/08","01:03:44",17221.000,"cc",28377.283,6.00,6,0.100,12247.000,0.200,4524.000,0.300,293.000,0.500,128.000,1.000,29.000,5.000,0
"03/06/08","01:03:50",17414.000,"cc",28293.809,6.00,6,0.100,12404.000,0.200,4550.000,0.300,297.000,0.500,132.000,1.000,31.000,5.000,0
"03/06/08","01:03:56",16983.000,"cc",28277.977,6.00,6,0.100,12118.000,0.200,4442.000,0.300,236.000,0.500,150.000,1.000,37.000,5.000,0
"03/06/08","01:04:02",16985.000,"cc",28298.902,6.00,6,0.100,12033.000,0.200,4440.000,0.300,309.000,0.500,169.000,1.000,34.000,5.000,0
"03/06/08","01:04:08",16759.000,"cc",28408.443,6.00,6,0.100,11909.000,0.200,4381.000,0.300,247.000,0.500,181.000,1.000,41.000,5.000,0
"03/06/08","01:04:14",17100.000,"cc",28282.553,6.00,6,0.100,12083.000,0.200,4488.000,0.300,309.000,0.500,174.000,1.000,46.000,5.000,0
"03/06/08","01:04:20",17111.000,"cc",28332.217,6.00,6,0.100,12212.000,0.200,4417.000,0.300,299.000,0.500,152.000,1.000,31.000,5.000,0
"03/06/08","01:04:26",16755.000,"cc",28287.186,6.00,6,0.100,11958.000,0.200,4475.000,0.300,216.000,0.500,92.000,1.000,14.000,5.000,0
"03/06/08","01:04:32",16870.000,"cc",28382.152,6.00,6,0.100,12060.000,0.200,4441.000,0.300,243.000,0.500,118.000,1.000,8.000,5.000,0
"03/06/08","01:04:38",16930.000,"cc",28273.424,6.00,6,0.100,12048.000,0.200,4567.000,0.300,228.000,0.500,83.000,1.000,4.000,5.000,0
"03/06/08","01:04:44",17322.000,"cc",28367.145,6.00,6,0.100,12362.000,0.200,4650.000,0.300,226.000,0.500,76.000,1.000,8.000,5.000,0
"03/06/08","01:04:50",16868.000,"cc",28330.307,6.00,6,0.100,12062.000,0.200,4483.000,0.300,221.000,0.500,86.000,1.000,16.000,5.000,0
"03/06/08","01:04:56",17489.000,"cc",28375.859,6.00,6,0.100,12466.000,0.200,4691.000,0.300,220.000,0.500,100.000,1.000,12.000,5.000,0
"03/06/08","01:05:02",17637.000,"cc",28291.229,6.00,6,0.100,12536.000,0.200,4796.000,0.300,194.000,0.500,97.000,1.000,14.000,5.000,0
"03/06/08","01:05:08",17478.000,"cc",28250.074,6.00,6,0.100,12277.000,0.200,4852.000,0.300,246.000,0.500,92.000,1.000,11.000,5.000,0
"03/06/08","01:05:14",17738.000,"cc",28275.008,6.00,6,0.100,12600.000,0.200,4777.000,0.300,242.000,0.500,103.000,1.000,16.000,5.000,0
"03/06/08","01:05:20",17670.000,"cc",28316.648,6.00,6,0.100,12756.000,0.200,4620.000,0.300,217.000,0.500,71.000,1.000,6.000,5.000,0
"03/06/08","01:05:26",17541.000,"cc",28332.539,6.00,6,0.100,12607.000,0.200,4672.000,0.300,211.000,0.500,48.000,1.000,3.000,5.000,0
"03/06/08","01:05:32",17560.000,"cc",28291.299,6.00,6,0.100,12486.000,0.200,4772.000,0.300,211.000,0.500,80.000,1.000,11.000,5.000,0
"03/06/08","01:05:38",17700.000,"cc",28362.807,6.00,6,0.100,12675.000,0.200,4726.000,0.300,229.000,0.500,63.000,1.000,7.000,5.000,0
"03/06/08","01:05:44",17882.000,"cc",28291.082,6.00,6,0.100,12748.000,0.200,4803.000,0.300,234.000,0.500,86.000,1.000,11.000,5.000,0
"03/06/08","01:05:50",17373.000,"cc",28317.973,6.00,6,0.100,12426.000,0.200,4655.000,0.300,210.000,0.500,80.000,1.000,2.000,5.000,0
"03/06/08","01:05:56",17420.000,"cc",28324.217,6.00,6,0.100,12464.000,0.200,4637.000,0.300,236.000,0.500,76.000,1.000,7.000,5.000,0
"03/06/08","01:06:02",17165.000,"cc",28352.451,6.00,6,0.100,12250.000,0.200,4625.000,0.300,214.000,0.500,71.000,1.000,5.000,5.000,0
"03/06/08","01:06:08",17621.000,"cc",28350.691,6.00,6,0.100,12561.000,0.200,4755.000,0.300,215.000,0.500,82.000,1.000,8.000,5.000,0
"03/06/08","01:06:14",17561.000,"cc",28289.697,6.00,6,0.100,12564.000,0.200,4703.000,0.300,211.000,0.500,78.000,1.000,5.000,5.000,0
"03/06/08","01:06:20",17318.000,"cc",28359.541,6.00,6,0.100,12380.000,0.200,4618.000,0.300,220.000,0.500,86.000,1.000,14.000,5.000,0
"03/06/08","01:06:26",17086.000,"cc",28311.090,6.00,6,0.100,12169.000,0.200,4563.000,0.300,239.000,0.500,102.000,1.000,13.000,5.000,0
"03/06/08","01:06:32",17280.000,"cc",28302.125,6.00,6,0.100,12344.000,0.200,4574.000,0.300,245.000,0.500,100.000,1.000,17.000,5.000,0
"03/06/08","01:06:38",17310.000,"cc",28265.342,6.00,6,0.100,12278.000,0.200,4617.000,0.300,256.000,0.500,141.000,1.000,18.000,5.000,0
"03/06/08","01:06:44",17302.000,"cc",28334.023,6.00,6,0.100,12284.000,0.200,4644.000,0.300,253.000,0.500,108.000,1.000,13.000,5.000,0
"03/06/08","01:06:50",17157.000,"cc",28347.701,6.00,6,0.100,12204.000,0.200,4538.000,0.300,243.000,0.500,147.000,1.000,25.000,5.000,0
"03/06/08","01:06:56",16922.000,"cc",28353.443,6.00,6,0.100,12047.000,0.200,4451.000,0.300,279.000,0.500,119.000,1.000,26.000,5.000,0
"03/06/08","01:07:02",16645.000,"cc",28322.215,6.00,6,0.100,11953.000,0.200,4311.000,0.300,228.000,0.500,133.000,1.000,20.000,5.000,0
"03/06/08","01:07:08",16687.000,"cc",28361.209,6.00,6,0.100,11858.000,0.200,4334.000,0.300,303.000,0.500,162.000,1.000,30.000,5.000,0
"03/06/08","01:07:14",16992.000,"cc",28295.797,6.00,6,0.100,12124.000,0.200,4460.000,0.300,231.000,0.500,151.000,1.000,26.000,5.000,0
"03/06/08","01:07:20",17101.000,"cc",28274.029,6.00,6,0.100,12236.000,0.200,4421.000,0.300,257.000,0.500,151.000,1.000,36.000,5.000,0
"03/06/08","01:07:26",16924.000,"cc",28304.617,6.00,6,0.100,12071.000,0.200,4372.000,0.300,282.000,0.500,162.000,1.000,37.000,5.000,0
"03/06/08","01:07:32",16411.000,"cc",28290.963,6.00,6,0.100,11783.000,0.200,4201.000,0.300,254.000,0.500,135.000,1.000,38.000,5.000,0
"03/06/08","01:07:38",16271.000,"cc",28302.305,6.00,6,0.100,11613.000,0.200,4180.000,0.300,276.000,0.500,158.000,1.000,44.000,5.000,0
"03/06/08","01:07:44",16265.000,"cc",28332.455,6.00,6,0.100,11587.000,0.200,4231.000,0.300,237.000,0.500,164.000,1.000,46.000,5.000,0
"03/06/08","01:07:50",16110.000,"cc",28302.729,6.00,6,0.100,11505.000,0.200,4133.000,0.300,248.000,0.500,165.000,1.000,59.000,5.000,0
"03/06/08","01:07:56",15956.000,"cc",28306.602,6.00,6,0.100,11468.000,0.200,3977.000,0.300,285.000,0.500,166.000,1.000,60.000,5.000,0
"03/06/08","01:08:02",15862.000,"cc",28311.705,6.00,6,0.100,11458.000,0.200,3939.000,0.300,257.000,0.500,164.000,1.000,44.000,5.000,0
"03/06/08","01:08:08",15324.000,"cc",28320.367,6.00,6,0.100,11120.000,0.200,3747.000,0.300,258.000,0.500,156.000,1.000,43.000,5.000,0
"03/06/08","01:08:14",15592.000,"cc",28347.057,6.00,6,0.100,11266.000,0.200,3838.000,0.300,277.000,0.500,154.000,1.000,57.000,5.000,0
"03/06/08","01:08:20",15369.000,"cc",28391.813,6.00,6,0.100,11201.000,0.200,3708.000,0.300,251.000,0.500,169.000,1.000,40.000,5.000,0
"03/06/08","01:08:26",15393.000,"cc",28288.785,6.00,6,0.100,11176.000,0.200,3742.000,0.300,240.000,0.500,175.000,1.000,60.000,5.000,0
"03/06/08","01:08:32",14734.000,"cc",28321.166,6.00,6,0.100,10679.000,0.200,3610.000,0.300,241.000,0.500,157.000,1.000,47.000,5.000,0
"03/06/08","01:08:38",14643.000,"cc",28273.945,6.00,6,0.100,10638.000,0.200,3546.000,0.300,255.000,0.500,159.000,1.000,45.000,5.000,0
"03/06/08","01:08:44",14511.000,"cc",28319.822,6.00,6,0.100,10680.000,0.200,3458.000,0.300,209.000,0.500,124.000,1.000,40.000,5.000,0
"03/06/08","01:08:50",14859.000,"cc",28342.363,6.00,6,0.100,10939.000,0.200,3540.000,0.300,195.000,0.500,147.000,1.000,38.000,5.000,0
"03/06/08","01:08:56",16196.000,"cc",28318.326,6.00,6,0.100,11871.000,0.200,3850.000,0.300,252.000,0.500,152.000,1.000,71.000,5.000,0
"03/06/08","01:09:02",17708.000,"cc",28322.139,6.00,6,0.100,12901.000,0.200,4325.000,0.300,271.000,0.500,160.000,1.000,51.000,5.000,0
"03/06/08","01:09:08",17891.000,"cc",28303.590,6.00,6,0.100,13073.000,0.200,4349.000,0.300,279.000,0.500,148.000,1.000,42.000,5.000,0
"03/06/08","01:09:14",18310.000,"cc",28309.256,6.00,6,0.100,13268.000,0.200,4574.000,0.300,258.000,0.500,173.000,1.000,37.000,5.000,0
"03/06/08","01:09:20",18200.000,"cc",28304.908,6.00,6,0.100,13175.000,0.200,4561.000,0.300,262.000,0.500,166.000,1.000,36.000,5.000,0
"03/06/08","01:09:26",18637.000,"cc",28340.229,6.00,6,0.100,13492.000,0.200,4724.000,0.300,273.000,0.500,128.000,1.000,20.000,5.000,0
"03/06/08","01:09:32",18829.000,"cc",28336.598,6.00,6,0.100,13723.000,0.200,4678.000,0.300,259.000,0.500,139.000,1.000,30.000,5.000,0
"03/06/08","01:09:38",18971.000,"cc",28279.645,6.00,6,0.100,13947.000,0.200,4582.000,0.300,262.000,0.500,143.000,1.000,37.000,5.000,0
"03/06/08","01:09:44",18875.000,"cc",28344.783,6.00,6,0.100,13711.000,0.200,4715.000,0.300,289.000,0.500,125.000,1.000,35.000,5.000,0
"03/06/08","01:09:50",19000.000,"cc",28310.076,6.00,6,0.100,13870.000,0.200,4694.000,0.300,270.000,0.500,135.000,1.000,31.000,5.000,0
"03/06/08","01:09:56",19083.000,"cc",28323.506,6.00,6,0.100,13963.000,0.200,4711.000,0.300,245.000,0.500,142.000,1.000,22.000,5.000,0
"03/06/08","01:10:02",18815.000,"cc",28264.404,6.00,6,0.100,13711.000,0.200,4660.000,0.300,257.000,0.500,158.000,1.000,29.000,5.000,0
"03/06/08","01:10:08",19034.000,"cc",28359.252,6.00,6,0.100,13844.000,0.200,4667.000,0.300,317.000,0.500,175.000,1.000,31.000,5.000,0
"03/06/08","01:10:14",19003.000,"cc",28267.885,6.00,6,0.100,13759.000,0.200,4769.000,0.300,279.000,0.500,164.000,1.000,32.000,5.000,0
"03/06/08","01:10:20",19175.000,"cc",28296.479,6.00,6,0.100,13972.000,0.200,4662.000,0.300,316.000,0.500,196.000,1.000,29.000,5.000,0
"03/06/08","01:10:26",18884.000,"cc",28343.148,6.00,6,0.100,13830.000,0.200,4516.000,0.300,296.000,0.500,207.000,1.000,35.000,5.000,0
"03/06/08","01:10:32",18883.000,"cc",28358.320,6.00,6,0.100,13748.000,0.200,4621.000,0.300,283.000,0.500,190.000,1.000,41.000,5.000,0
"03/06/08","01:10:38",18805.000,"cc",28241.898,6.00,6,0.100,13836.000,0.200,4454.000,0.300,334.000,0.500,144.000,1.000,37.000,5.000,0
"03/06/08","01:10:44",18765.000,"cc",28345.318,6.00,6,0.100,13526.000,0.200,4697.000,0.300,310.000,0.500,194.000,1.000,38.000,5.000,0
"03/06/08","01:10:50",19359.000,"cc",28322.842,6.00,6,0.100,14033.000,0.200,4835.000,0.300,290.000,0.500,161.000,1.000,40.000,5.000,0
"03/06/08","01:10:56",19464.000,"cc",28299.840,6.00,6,0.100,14057.000,0.200,4843.000,0.300,341.000,0.500,175.000,1.000,48.000,5.000,0
"03/06/08","01:11:02",19414.000,"cc",28317.656,6.00,6,0.100,14046.000,0.200,4849.000,0.300,308.000,0.500,177.000,1.000,34.000,5.000,0
"03/06/08","01:11:08",19823.000,"cc",28322.690,6.00,6,0.100,14379.000,0.200,4941.000,0.300,313.000,0.500,154.000,1.000,36.000,5.000,0
"03/06/08","01:11:14",19551.000,"cc",28327.611,6.00,6,0.100,14285.000,0.200,4722.000,0.300,325.000,0.500,171.000,1.000,48.000,5.000,0
"03/06/08","01:11:20",20088.000,"cc",28320.914,6.00,6,0.100,14506.000,0.200,5052.000,0.300,290.000,0.500,190.000,1.000,50.000,5.000,0
"03/06/08","01:11:26",20156.000,"cc",28374.994,6.00,6,0.100,14647.000,0.200,5000.000,0.300,302.000,0.500,167.000,1.000,40.000,5.000,0
"03/06/08","01:11:32",20157.000,"cc",28301.361,6.00,6,0.100,14670.000,0.200,4996.000,0.300,299.000,0.500,165.000,1.000,27.000,5.000,0
"03/06/08","01:11:38",19905.000,"cc",28268.652,6.00,6,0.100,14385.000,0.200,5026.000,0.300,308.000,0.500,164.000,1.000,22.000,5.000,0
"03/06/08","01:11:44",19770.000,"cc",28356.842,6.00,6,0.100,14292.000,0.200,4997.000,0.300,289.000,0.500,162.000,1.000,30.000,5.000,0
"03/06/08","01:11:50",19931.000,"cc",28312.025,6.00,6,0.100,14523.000,0.200,4870.000,0.300,327.000,0.500,185.000,1.000,26.000,5.000,0
"03/06/08","01:11:56",20321.000,"cc",28288.434,6.00,6,0.100,14760.000,0.200,5100.000,0.300,272.000,0.500,165.000,1.000,24.000,5.000,0
"03/06/08","01:12:02",20383.000,"cc",28206.270,6.00,6,0.100,14841.000,0.200,5037.000,0.300,304.000,0.500,174.000,1.000,27.000,5.000,0
"03/06/08","01:12:08",20370.000,"cc",28370.232,6.00,6,0.100,14917.000,0.200,5018.000,0.300,279.000,0.500,132.000,1.000,24.000,5.000,0
"03/06/08","01:12:14",20356.000,"cc",28339.818,6.00,6,0.100,14728.000,0.200,5132.000,0.300,320.000,0.500,151.000,1.000,25.000,5.000,0
"03/06/08","01:12:20",20299.000,"cc",28366.440,6.00,6,0.100,14737.000,0.200,5089.000,0.300,291.000,0.500,158.000,1.000,24.000,5.000,0
"03/06/08","01:12:26",20208.000,"cc",28317.801,6.00,6,0.100,14698.000,0.200,4983.000,0.300,294.000,0.500,200.000,1.000,33.000,5.000,0
"03/06/08","01:12:32",20315.000,"cc",28342.363,6.00,6,0.100,14888.000,0.200,4960.000,0.300,287.000,0.500,154.000,1.000,26.000,5.000,0
"03/06/08","01:12:38",20425.000,"cc",28282.633,6.00,6,0.100,14939.000,0.200,5047.000,0.300,265.000,0.500,152.000,1.000,22.000,5.000,0
"03/06/08","01:12:44",20121.000,"cc",28275.107,6.00,6,0.100,14767.000,0.200,4899.000,0.300,280.000,0.500,144.000,1.000,31.000,5.000,0
"03/06/08","01:12:50",20096.000,"cc",28286.977,6.00,6,0.100,14773.000,0.200,4877.000,0.300,275.000,0.500,139.000,1.000,32.000,5.000,0
"03/06/08","01:12:56",20228.000,"cc",28329.531,6.00,6,0.100,14732.000,0.200,4987.000,0.300,324.000,0.500,161.000,1.000,24.000,5.000,0
"03/06/08","01:13:02",19694.000,"cc",28339.125,6.00,6,0.100,14339.000,0.200,4859.000,0.300,293.000,0.500,163.000,1.000,40.000,5.000,0
"03/06/08","01:13:08",19683.000,"cc",28311.313,6.00,6,0.100,14504.000,0.200,4692.000,0.300,284.000,0.500,175.000,1.000,28.000,5.000,0
"03/06/08","01:13:14",19055.000,"cc",28298.627,6.00,6,0.100,14198.000,0.200,4377.000,0.300,270.000,0.500,175.000,1.000,35.000,5.000,0
"03/06/08","01:13:20",19165.000,"cc",28290.006,6.00,6,0.100,14300.000,0.200,4361.000,0.300,306.000,0.500,153.000,1.000,45.000,5.000,0
"03/06/08","01:13:26",19047.000,"cc",28313.932,6.00,6,0.100,14103.000,0.200,4399.000,0.300,304.000,0.500,191.000,1.000,50.000,5.000,0
"03/06/08","01:13:32",18936.000,"cc",28260.186,6.00,6,0.100,14134.000,0.200,4283.000,0.300,292.000,0.500,179.000,1.000,48.000,5.000,0
"03/06/08","01:13:38",18033.000,"cc",28395.283,6.00,6,0.100,13610.000,0.200,4017.000,0.300,213.000,0.500,154.000,1.000,39.000,5.000,0
"03/06/08","01:13:44",18272.000,"cc",28334.315,6.00,6,0.100,13734.000,0.200,4080.000,0.300,248.000,0.500,161.000,1.000,49.000,5.000,0
"03/06/08","01:13:50",17998.000,"cc",28352.842,6.00,6,0.100,13554.000,0.200,3980.000,0.300,258.000,0.500,156.000,1.000,50.000,5.000,0
"03/06/08","01:13:56",17677.000,"cc",28288.231,6.00,6,0.100,13442.000,0.200,3792.000,0.300,241.000,0.500,154.000,1.000,48.000,5.000,0
"03/06/08","01:14:02",17692.000,"cc",28342.525,6.00,6,0.100,13311.000,0.200,3880.000,0.300,289.000,0.500,163.000,1.000,49.000,5.000,0
"03/06/08","01:14:08",18385.000,"cc",28353.729,6.00,6,0.100,13734.000,0.200,4067.000,0.300,311.000,0.500,205.000,1.000,68.000,5.000,0
"03/06/08","01:14:14",17586.000,"cc",28364.977,6.00,6,0.100,13460.000,0.200,3677.000,0.300,252.000,0.500,144.000,1.000,53.000,5.000,0
"03/06/08","01:14:20",17352.000,"cc",28296.434,6.00,6,0.100,13127.000,0.200,3757.000,0.300,236.000,0.500,169.000,1.000,63.000,5.000,0
"03/06/08","01:14:26",17129.000,"cc",28269.344,6.00,6,0.100,13110.000,0.200,3575.000,0.300,226.000,0.500,164.000,1.000,54.000,5.000,0
"03/06/08","01:14:32",17232.000,"cc",28290.488,6.00,6,0.100,13049.000,0.200,3713.000,0.300,250.000,0.500,167.000,1.000,53.000,5.000,0
"03/06/08","01:14:38",17258.000,"cc",28325.758,6.00,6,0.100,13107.000,0.200,3692.000,0.300,233.000,0.500,175.000,1.000,51.000,5.000,0
"03/06/08","01:14:44",19790.000,"cc",28311.832,6.00,6,0.100,14642.000,0.200,4545.000,0.300,346.000,0.500,194.000,1.000,63.000,5.000,0
"03/06/08","01:14:50",22107.000,"cc",28385.857,6.00,6,0.100,16352.000,0.200,5185.000,0.300,332.000,0.500,197.000,1.000,41.000,5.000,0
"03/06/08","01:14:56",21925.000,"cc",28342.963,6.00,6,0.100,16148.000,0.200,5200.000,0.300,333.000,0.500,199.000,1.000,45.000,5.000,0
"03/06/08","01:15:02",22210.000,"cc",28347.504,6.00,6,0.100,16169.000,0.200,5484.000,0.300,324.000,0.500,183.000,1.000,50.000,5.000,0
"03/06/08","01:15:08",21833.000,"cc",28263.828,6.00,6,0.100,16016.000,0.200,5277.000,0.300,314.000,0.500,185.000,1.000,41.000,5.000,0
"03/06/08","01:15:14",21788.000,"cc",28386.328,6.00,6,0.100,16114.000,0.200,5109.000,0.300,326.000,0.500,189.000,1.000,50.000,5.000,0
"03/06/08","01:15:20",21875.000,"cc",28311.268,6.00,6,0.100,16069.000,0.200,5279.000,0.300,320.000,0.500,168.000,1.000,39.000,5.000,0
"03/06/08","01:15:26",21959.000,"cc",28294.199,6.00,6,0.100,16155.000,0.200,5295.000,0.300,304.000,0.500,170.000,1.000,35.000,5.000,0
"03/06/08","01:15:32",21921.000,"cc",28329.531,6.00,6,0.100,16191.000,0.200,5180.000,0.300,305.000,0.500,209.000,1.000,36.000,5.000,0
"03/06/08","01:15:38",21657.000,"cc",28224.889,6.00,6,0.100,16039.000,0.200,5066.000,0.300,335.000,0.500,171.000,1.000,46.000,5.000,0
"03/06/08","01:15:44",21816.000,"cc",28327.488,6.00,6,0.100,16156.000,0.200,5066.000,0.300,347.000,0.500,201.000,1.000,46.000,5.000,0
"03/06/08","01:15:50",21851.000,"cc",28273.705,6.00,6,0.100,16106.000,0.200,5224.000,0.300,312.000,0.500,178.000,1.000,31.000,5.000,0
"03/06/08","01:15:56",22029.000,"cc",28352.158,6.00,6,0.100,16366.000,0.200,5131.000,0.300,318.000,0.500,175.000,1.000,39.000,5.000,0
"03/06/08","01:16:02",21524.000,"cc",28258.760,6.00,6,0.100,15871.000,0.200,5114.000,0.300,343.000,0.500,154.000,1.000,42.000,5.000,0
"03/06/08","01:16:08",21268.000,"cc",28315.707,6.00,6,0.100,15775.000,0.200,4947.000,0.300,324.000,0.500,182.000,1.000,40.000,5.000,0
"03/06/08","01:16:14",21349.000,"cc",28357.383,6.00,6,0.100,15910.000,0.200,4867.000,0.300,339.000,0.500,188.000,1.000,45.000,5.000,0
"03/06/08","01:16:20",21598.000,"cc",28317.352,6.00,6,0.100,16056.000,0.200,4900.000,0.300,336.000,0.500,234.000,1.000,72.000,5.000,0
"03/06/08","01:16:26",21236.000,"cc",28314.023,6.00,6,0.100,15800.000,0.200,4889.000,0.300,316.000,0.500,175.000,1.000,56.000,5.000,0
"03/06/08","01:16:32",21240.000,"cc",28314.293,6.00,6,0.100,15897.000,0.200,4776.000,0.300,303.000,0.500,206.000,1.000,58.000,5.000,0
"03/06/08","01:16:38",21481.000,"cc",28330.736,6.00,6,0.100,15973.000,0.200,4929.000,0.300,339.000,0.500,190.000,1.000,50.000,5.000,0
"03/06/08","01:16:44",22126.000,"cc",28389.834,6.00,6,0.100,16381.000,0.200,5147.000,0.300,317.000,0.500,216.000,1.000,65.000,5.000,0